Location: Sevilla
(37.3933°N, 5.9839°W)
Time: 05:37:21
(UTC+02:00)

Transit 2A - Pass Details

Date: 29 June 2024
Orbit: 591 x 960 km, 66.7° (Epoch: 15 July)

Event Time Altitude Azimuth Distance (km) Brightness Sun altitude
Rises 01:56:32 0° 322° (NW) 3,601 10.3 -29.0°
Reaches altitude 10° 01:59:16 10° 314° (NW) 2,677 9.4 -29.0°
Enters shadow 02:04:28 34° 260° (W) 1,517 7.4 -29.2°
Maximum altitude 02:04:53 35° 251° (WSW) 1,507 - -29.2°
Drops below altitude 10° 02:10:28 10° 189° (S) 2,661 - -29.3°
Sets 02:13:11 0° 180° (S) 3,575 - -29.3°
